Regional Weather Roundup
Issued by NWS Upton, NY

Current Version | Previous Version | Graphics & Text | Print | Product List | Glossary Off
Versions: 1 2 3 4 5 6 7 8 9 10 11 12 13 14 15 16 17 18 19 20 21 22 23 24 25 26 27

000
ASUS41 KOKX 051104
RWROKX

REGIONAL WEATHER ROUNDUP
NATIONAL WEATHER SERVICE NEW YORK NY
700 AM EDT THU MAY 05 2016

NOTE: "FAIR" INDICATES FEW OR NO CLOUDS BELOW 12,000 FEET WITH NO
SIGNIFICANT WEATHER AND/OR OBSTRUCTIONS TO VISIBILITY.

NYZ071-072-176-178-NJZ106-104-051200-
NEW YORK CITY METRO AREA


CITY           SKY/WX    TMP DP  RH WIND       PRES   REMARKS
CENTRAL PARK   CLOUDY    47  43  86 VRB7      29.72S FOG
LAGUARDIA APRT CLOUDY    47  45  93 NE10      29.70S
KENNEDY INTL   CLOUDY    47  42  83 NE14      29.70R
NEWARK/LIBERTY CLOUDY    47  45  93 N13       29.70R FOG
BRNX BOT. GARD   N/A     45  43  93 SE3       29.72R
TETERBORO      CLOUDY    47  42  83 N7        29.69S
$$

NYZ177-179-078>081-051200-
LONG ISLAND NEW YORK

CITY           SKY/WX    TMP DP  RH WIND       PRES   REMARKS
FARMINGDALE    CLOUDY    47  41  80 NE13      29.70R
ISLIP          CLOUDY    46  41  82 N13       29.69R
SHIRLEY        CLOUDY    46  42  86 VRB7      29.69R
RIVERHEAD        N/A     46  43  87 E6        29.69R
WESTHAMPTON    CLOUDY    42  42 100 NE15      29.70R
EAST HAMPTON   CLOUDY    45  42  88 NE13G20   29.68R
MONTAUK POINT    N/A     46  42  86 N10G23    29.70R
$$

NYZ052-065-067-051200-
HUDSON VALLEY

CITY           SKY/WX    TMP DP  RH WIND       PRES   REMARKS
WHITE PLAINS   CLOUDY    46  41  82 N9        29.69S
NEWBURGH       CLOUDY    45  45 100 NE6       29.72R
MONTGOMERY     CLOUDY    47  44  90 NE8       29.71S
POUGHKEEPSIE   CLOUDY    49  43  80 NE6       29.72R
ALBANY         CLOUDY    48  44  86 N6        29.76S
$$

NJZ001-105-106-008-010-013-015-019>022-104-051200-
NEW JERSEY

CITY           SKY/WX    TMP DP  RH WIND       PRES   REMARKS
NEWARK/LIBERTY CLOUDY    47  45  93 N13       29.70R FOG
TETERBORO      CLOUDY    47  42  83 N7        29.69S
CALDWELL       CLOUDY    47  31  53 NE5       29.71R
MORRISTOWN     CLOUDY    46  46 100 NE5       29.70R FOG
SOMERVILLE     CLOUDY    49  43  80 NE6       29.69R
SUSSEX         CLOUDY    46  42  86 NE7       29.71S
ANDOVER          N/A     46  43  89 NE6       29.70S
TRENTON        CLOUDY    48  44  86 NE9       29.68R
MILLVILLE      CLOUDY    48  44  86 NE10      29.67R
ATLANTIC CITY  CLOUDY    47  45  93 NE14      29.66R
WRIGHTSTOWN    CLOUDY    47  46  95 N9        29.66R
TOMS RIVER     CLOUDY    46  43  87 NE10      29.69R
BELMAR         CLOUDY    46  44  93 NE9       29.69R
$$

PAZ047>061-062-071-051200-
EASTERN PENNSYLVANIA

CITY           SKY/WX    TMP DP  RH WIND       PRES   REMARKS
PHILADELPHIA   CLOUDY    50  43  77 NE12      29.69R
ALLENTOWN      CLOUDY    48  42  80 NE7       29.69F
SCRANTON       CLOUDY    47  43  86 NE10      29.70F
$$

CTZ002-004>006-009-010-012-RIZ004-006-007-MAZ004-011-015-051200-
SOUTHERN NEW ENGLAND
 IN CT

CITY           SKY/WX    TMP DP  RH WIND       PRES   REMARKS
BRADLEY INTL   CLOUDY    45  40  82 N13       29.73S
HARTFORD       CLOUDY    47  40  76 N12       29.73S
DANBURY        CLOUDY    45  39  79 NE8       29.72R
WTRBRY/OXFORD  CLOUDY    43  37  81 NE8G20    29.71R
BRIDGEPORT     CLOUDY    47  40  76 NE14      29.71R
MERIDEN        CLOUDY    46  39  76 N13G21    29.71S
NEW HAVEN      CLOUDY    46  40  79 N12G22    29.70R
CHESTER        CLOUDY    45  41  87 N10       29.69R
GROTON         CLOUDY    46  46 100 N12G21    29.69R
WILLIMANTIC    CLOUDY    46  40  79 NE13      29.72S

 IN RI

CITY           SKY/WX    TMP DP  RH WIND       PRES   REMARKS
PROVIDENCE     CLOUDY    45  42  89 NE15      29.71S
BLOCK ISLAND   CLOUDY    45  42  89 NE18G31   29.68R
WESTERLY       CLOUDY    46  40  79 N13G22    29.69R

 IN MA

CITY           SKY/WX    TMP DP  RH WIND       PRES   REMARKS
BOSTON         CLOUDY    44  43  96 NE16      29.75F FOG
WORCESTER      FOG       39  38  96 NE12G20   29.72S VSB 3/4 WCI  32
WESTFIELD      CLOUDY    44  40  85 N10       29.73F
PROVINCETOWN   CLOUDY    45  44  97 NE20G28   29.72R FOG
NANTUCKET      CLOUDY    45  44  97 N22       29.65R
$$

ANZ330-335-338-340-345-350-353-355-051200-
COASTAL MARINE OBSERVATIONS


STATION/POSITION TIME  SKY/WX   TEMP    WIND        PRES    VSBY  WAVE
                                AIR SEA DIR/SP/G                  HT/PER
                 (UTC)          (F)     (DEG/KT/KT) (MB)    (MI)  (FT/S)
NY HARB ENTRANCE 0950            47 50   30/ 17/ 21 1003.9          5/ 7
20S FIRE ISLAND  0950            46 48   30/ 19/ 23 1003.1          7/ 7
GREAT SOUTH BAY  1015            47 54   30/ 14/ 17   N/A
23 SSW MONTAUK P 1050            46 46   30/ 21/ 27 1003.9          6/ 6
15 E BARNEGAT LI 1022               50                N/A           6/ 7
HUDSON CANYON    0950            47 48              1002.1          7/ 6
KINGS POINT      1000            46 53              1004.8
EXECUTION ROCKS  NOT AVBL
CENTRAL LI SOUND 1000            46      40/ 16/ 19   N/A           2/ 3
EASTERN LI SOUND 1000            46 47   30/ 16/ 19   N/A
ROBBINS REEF     1006            47     360/ 15/ 19 1004.4
$$


>>>>>>>>>>>>>>>>>>>>>>>>>>>> KEY <<<<<<<<<<<<<<<<<<<<<<<<<<<
>                                                          <
>     SKY/WX - SKY CONDITION/PRESENT WEATHER               <
>     TMP    - TEMPERATURE IN FAHRENHEIT                   <
>     DP     - DEWPOINT IN FAHRENHEIT                      <
>     RH     - RELATIVE HUMIDITY IN PERCENT                <
>     WIND   - DIRECTION AND SPEED IN MPH                  <
>     PRES   - MEAN SEA LEVEL PRESSURE IN INCHES OF HG     <
>     WCI    - WIND CHILL INDEX                            <
>     VSB    - VISIBILITY IN MILES                         <
>     HX     - HEAT INDEX                                  <
>     TC     - TEMPERATURE IN CELSIUS                      <
>     VRB    - VARIABLE WIND DIRECTION                     <
>                                                          <
>>>>>>>>>>>>>>>>>>>>>>>>>>>> KEY <<<<<<<<<<<<<<<<<<<<<<<<<<<






USA.gov is the U.S. government's official web portal to all federal, state and local government web resources and services.